Theta_e
340 340 339 346 347 345 345 345 344 344 344 345 348 348 348 349 349 349 349 348 348 348 349 348 348 347 347 347 345 346 345 344 343 343 341 341 341 341 341 341 342 343 344 344 346 347 347 348 347 347 347 348 348 348 348 348 347 347 347 346 345 345 346 346 346 346 345 346 346 346 345 344 344 344 343 344 345 344 342 342 341 339 338 341 344
340 339 339 339 345 345 345 345 345 344 344 345 348 348 348 349 348 349 348 348 348 347 348 347 348 347 346 345 345 344 343 342 342 341 341 341 341 342 343 343 343 343 343 343 344 345 346 347 346 345 346 348 347 346 345 345 345 345 344 345 344 344 345 345 344 344 343 344 345 345 344 345 345 346 345 346 345 344 342 342 342 338 337 344 344
340 341 340 340 345 345 344 344 344 344 344 347 349 349 349 349 348 348 348 348 347 347 347 347 347 346 345 344 343 343 342 341 341 341 340 342 341 341 341 341 342 342 342 341 342 343 343 343 344 343 346 347 346 345 345 345 345 345 345 345 343 344 344 344 343 343 342 342 343 343 343 345 344 345 345 345 345 344 341 342 342 341 339 343 342
340 340 339 341 344 345 344 344 344 345 347 349 349 348 348 348 348 348 347 347 347 347 347 347 347 345 345 344 344 343 343 342 341 340 340 339 339 339 340 340 340 340 341 341 341 341 341 342 342 343 345 345 345 345 346 345 344 344 345 345 344 344 343 343 342 342 341 340 340 339 337 335 340 344 345 345 344 343 342 341 342 342 342 341 342
341 340 338 338 338 343 345 345 344 344 347 348 348 348 348 348 348 347 347 346 347 347 347 346 346 345 343 341 344 343 343 342 340 339 339 339 339 338 339 340 339 339 340 340 341 340 340 340 340 342 344 344 344 345 345 345 344 343 343 344 344 343 343 342 342 341 340 339 338 336 332 334 336 341 343 343 342 340 340 339 340 340 340 340 340
340 339 337 336 336 340 345 344 343 345 347 347 347 348 348 348 347 347 347 347 346 346 345 344 345 345 343 341 343 342 342 342 342 340 340 340 340 340 340 340 340 340 340 339 339 340 339 339 339 340 344 344 344 344 344 343 343 343 343 343 343 343 342 341 340 339 339 338 337 332 332 333 334 338 342 342 340 340 339 339 338 338 339 339 338
340 337 336 336 336 339 343 344 344 343 345 346 346 347 347 347 347 347 347 347 346 346 345 345 344 343 342 341 340 343 344 341 339 339 338 338 338 338 338 338 339 339 340 340 340 340 340 340 339 339 342 343 343 343 343 342 342 343 344 343 343 342 341 340 339 338 336 333 329 329 331 332 334 335 340 340 340 339 338 338 337 337 336 337 336
338 338 337 336 336 341 344 345 344 343 343 346 346 346 347 347 347 347 347 346 344 343 343 342 342 342 341 340 342 341 338 339 341 340 339 341 340 340 339 339 339 339 339 338 339 339 339 339 338 339 340 342 343 343 342 342 342 342 342 343 342 341 340 338 337 336 334 328 327 327 328 329 330 331 337 338 338 338 338 337 337 336 336 335 335
338 338 338 336 337 341 343 344 344 346 346 347 346 345 346 347 347 347 345 344 343 343 343 342 342 342 340 339 339 339 339 339 340 340 340 340 340 338 337 337 338 339 339 339 339 339 339 338 338 338 339 341 342 342 342 341 342 342 341 341 341 340 338 337 336 334 331 328 327 326 326 327 328 328 335 336 336 335 335 334 335 335 335 333 333
338 337 336 335 336 340 343 344 345 344 346 346 345 345 347 347 347 347 345 344 343 342 342 341 341 340 339 339 338 338 338 338 338 338 340 340 340 340 339 338 339 338 337 338 338 338 339 338 338 339 339 341 341 341 341 341 341 341 340 340 339 338 338 336 335 334 328 326 326 327 330 334 326 328 332 335 335 333 333 334 335 334 331 330 330
337 336 335 335 337 340 344 345 345 344 343 345 345 345 346 346 346 346 345 344 342 341 341 340 339 339 338 339 338 338 337 338 339 340 340 340 341 340 339 339 339 339 339 338 339 339 339 340 339 339 339 340 340 340 341 340 340 340 340 339 338 337 335 334 330 324 323 323 324 324 331 335 324 328 334 334 334 334 335 334 331 329 329 329 329
337 336 335 336 342 340 344 344 344 344 343 343 344 346 346 346 345 345 345 343 342 341 339 339 338 338 339 338 336 337 339 341 343 342 342 341 340 339 339 338 339 339 338 339 339 339 339 340 339 339 339 340 339 339 340 339 339 340 339 340 337 335 333 331 325 323 323 325 326 326 325 326 326 331 334 333 333 333 332 331 331 329 329 329 328
337 337 336 336 337 338 342 343 343 343 343 341 341 346 346 344 345 345 344 343 341 340 339 337 337 337 337 335 334 336 338 339 341 340 340 341 340 339 338 338 338 337 338 338 338 338 338 339 339 339 339 339 339 339 339 338 338 339 338 338 338 335 332 329 323 323 323 323 325 325 324 323 325 333 332 332 331 331 329 329 328 328 328 327 327
337 337 336 336 336 341 338 341 342 343 343 343 342 342 344 344 344 343 343 342 340 340 338 337 337 337 337 336 336 337 337 338 339 341 341 341 340 340 340 339 339 339 339 338 337 337 337 338 338 338 338 339 338 338 338 338 337 338 337 337 336 334 330 328 327 323 324 323 324 324 323 325 326 332 332 333 332 329 327 327 327 327 328 327 326
338 338 336 336 336 337 339 338 340 340 341 342 342 342 342 341 343 343 343 343 341 340 339 338 338 337 337 336 335 338 338 337 338 338 338 340 341 340 340 340 339 339 337 337 337 337 338 338 338 338 338 338 338 338 338 337 337 337 336 336 334 332 329 323 323 321 323 324 323 323 321 322 332 329 332 331 331 329 326 326 326 326 325 325 325
339 337 336 336 335 336 336 338 334 335 338 340 341 341 344 344 342 340 340 341 340 340 340 340 339 338 339 341 339 338 339 339 340 341 340 339 339 339 339 338 337 336 336 335 337 337 337 337 337 337 336 337 338 338 337 337 336 336 336 335 333 331 328 326 322 319 320 320 322 324 322 322 332 332 331 331 329 327 325 326 326 326 325 325 325
338 336 336 335 334 334 335 334 332 331 332 334 337 339 341 342 343 343 340 341 340 339 339 340 339 339 339 340 341 340 339 339 340 341 342 341 338 338 337 338 338 337 336 336 337 336 336 336 336 335 336 336 337 337 337 336 335 335 334 333 331 330 328 326 323 320 320 321 322 321 320 321 331 330 330 329 328 326 326 325 325 325 323 324 323
337 336 335 335 333 333 334 333 332 332 332 332 333 336 338 339 339 340 340 339 340 340 340 339 339 338 337 337 338 339 340 339 339 339 340 340 339 339 338 337 337 336 335 335 335 336 335 335 335 334 335 335 336 336 336 335 335 334 333 331 330 328 327 326 321 319 321 326 320 323 320 331 333 328 328 329 327 326 324 325 325 324 324 323 323
336 335 335 335 334 333 332 332 331 331 330 330 331 332 333 335 337 338 339 339 340 339 338 335 336 335 334 333 333 334 334 335 336 336 335 335 335 337 337 337 336 336 336 335 335 335 334 334 334 334 334 335 335 335 334 334 334 333 332 329 325 324 324 324 320 319 320 319 319 320 319 332 332 327 329 329 326 325 325 326 326 323 322 322 323
335 335 335 334 334 332 332 331 331 330 329 329 329 330 330 329 333 335 336 337 337 336 334 332 331 328 328 329 328 327 326 326 325 327 331 332 331 329 335 336 335 335 335 335 334 334 334 334 333 334 335 335 335 334 334 334 334 332 330 327 320 321 321 319 320 320 319 319 320 317 325 332 328 329 329 329 328 325 323 322 324 322 322 322 322
336 334 334 335 334 333 332 331 331 330 329 329 329 330 328 327 328 329 331 332 332 333 332 325 324 323 323 324 324 324 323 324 323 322 324 323 325 327 334 335 335 334 334 334 335 334 334 334 334 333 334 332 329 328 326 330 331 331 330 325 320 319 318 319 318 319 317 316 319 317 328 332 329 329 329 329 329 326 324 324 323 324 323 322 322
334 334 334 335 334 333 332 332 331 330 330 330 330 328 327 326 326 325 325 327 327 326 325 323 328 320 321 322 319 320 322 321 322 327 320 321 321 322 327 333 334 333 334 333 333 333 333 334 333 333 333 331 323 314 316 318 322 325 322 315 315 316 317 318 318 317 317 315 317 320 331 333 330 330 330 330 329 328 325 324 323 322 323 323 322
333 334 334 334 334 333 333 332 331 331 330 329 330 329 329 327 326 324 324 324 326 325 323 323 320 320 319 320 320 318 319 320 321 321 320 319 320 321 325 329 332 331 333 334 333 333 333 332 332 331 330 326 318 316 316 316 316 318 315 314 315 316 317 317 316 315 315 316 317 323 330 333 330 330 330 329 329 329 327 325 325 324 324 323 321
334 334 334 335 334 333 333 332 331 331 331 330 329 329 329 327 326 325 324 323 323 323 321 321 320 320 322 322 321 319 319 318 326 326 325 318 318 322 324 326 327 326 327 328 331 332 332 332 330 328 319 313 312 315 315 315 316 316 315 314 314 315 315 314 314 315 315 317 318 323 329 332 331 330 330 330 330 329 327 326 326 325 324 323 323
333 334 334 334 334 333 333 332 332 332 331 330 329 329 328 327 326 325 324 323 323 323 323 322 321 322 321 322 320 319 320 318 319 318 317 317 315 316 317 317 317 318 321 318 318 319 318 314 312 312 311 311 313 314 313 314 313 312 311 312 314 312 311 311 312 314 315 318 318 322 328 332 332 332 331 331 330 328 328 327 327 326 326 325 325
329 331 332 333 334 334 333 333 332 332 332 331 330 329 329 327 327 326 325 325 324 323 323 324 323 323 321 320 320 320 320 320 317 317 316 317 316 316 317 316 314 317 318 318 316 316 316 314 311 312 313 312 312 312 311 311 312 311 312 310 311 311 312 310 310 313 313 315 318 321 326 331 332 332 331 331 331 329 329 328 328 328 328 327 326
327 330 332 333 334 334 333 332 332 332 332 331 329 328 329 328 328 327 326 325 323 324 324 323 324 323 321 320 321 319 319 319 318 317 317 318 318 316 316 316 318 316 317 317 317 316 315 314 314 316 312 311 312 310 310 311 311 312 311 310 310 311 312 313 312 312 311 313 316 318 322 328 332 332 332 332 333 332 331 331 331 331 330 329 329
326 329 330 332 332 334 334 332 331 332 332 331 329 328 329 328 327 327 327 325 324 324 325 325 325 324 322 321 321 321 320 318 318 318 318 317 318 318 317 316 318 316 316 317 318 315 314 315 314 313 314 311 310 311 310 311 310 310 311 311 310 312 313 312 313 313 312 311 314 317 320 324 327 331 333 333 333 333 333 332 332 332 333 332 331
325 326 329 330 332 333 333 332 331 331 331 331 328 328 328 328 327 326 326 325 325 324 326 325 324 323 323 322 320 319 318 319 317 318 317 319 318 318 316 318 318 319 316 315 316 315 315 314 314 315 314 315 311 312 310 311 310 310 310 312 311 311 312 314 314 314 313 312 312 315 318 323 326 330 332 332 332 333 334 333 333 332 333 332 333
326 327 327 328 330 332 332 332 330 331 330 329 328 327 327 327 327 327 326 324 325 324 324 323 325 324 324 322 321 320 320 319 319 318 317 318 319 318 317 318 318 319 316 316 315 314 315 312 311 310 311 312 311 313 310 312 313 312 310 312 312 313 313 312 314 315 315 314 314 313 315 319 323 329 331 332 332 333 334 334 333 333 333 333 333
325 325 326 327 328 331 332 332 331 329 329 327 327 327 326 327 327 327 326 325 326 325 324 325 323 324 325 323 322 320 320 319 319 318 318 318 318 318 317 318 318 318 317 318 314 316 315 314 315 313 312 311 313 311 310 313 312 312 311 310 313 312 312 313 312 313 314 314 314 313 314 316 320 325 328 331 333 333 333 334 334 334 334 334 334
324 325 326 327 327 330 331 331 331 330 329 328 326 326 326 326 326 327 326 326 325 324 324 324 322 324 323 322 322 320 319 318 319 319 319 318 317 316 316 316 318 316 316 317 314 315 315 313 311 311 310 310 311 309 308 309 311 312 309 311 312 312 312 312 312 313 314 313 313 314 313 314 316 319 323 327 331 332 332 333 333 334 334 333 335
325 326 326 325 327 329 331 331 331 330 330 329 327 327 326 326 326 326 326 326 325 325 323 323 324 324 322 322 322 321 319 320 316 319 318 317 316 316 316 316 317 316 315 315 313 312 311 310 309 309 310 310 309 312 309 307 307 311 310 311 310 311 312 312 313 313 313 314 314 313 313 313 313 314 316 319 325 330 332 333 333 332 333 334 334
324 325 325 325 328 330 331 331 331 330 330 330 328 326 326 326 326 326 326 326 325 324 324 322 322 323 323 322 322 321 320 319 317 315 315 315 314 314 315 316 316 314 313 313 313 311 311 310 309 310 313 313 314 314 312 312 311 308 309 311 309 311 311 311 312 313 313 313 314 313 314 314 314 314 314 316 318 322 327 330 332 332 332 333 334
324 324 325 326 327 329 331 331 329 330 329 329 328 327 326 326 326 326 326 326 326 325 324 324 322 322 323 321 322 321 319 319 317 316 315 315 315 314 314 317 316 314 314 312 314 311 310 312 310 313 314 313 313 313 312 312 310 311 311 311 311 311 310 311 311 311 312 313 313 313 313 313 314 314 314 314 313 316 321 326 329 330 331 332 333
324 325 325 326 327 328 329 330 328 329 330 330 329 328 327 326 326 324 326 326 325 326 327 327 326 321 322 322 321 320 320 318 318 318 317 315 316 316 315 315 314 315 313 313 313 313 313 314 313 314 314 314 313 312 312 311 310 310 310 309 310 310 310 310 310 310 312 311 311 312 313 313 313 313 312 314 314 314 317 318 323 326 329 331 332
325 325 325 325 326 327 328 329 328 329 330 330 331 331 329 327 326 326 326 325 325 325 327 329 328 326 323 322 321 321 321 322 323 323 322 320 319 317 319 318 317 318 317 316 316 317 317 317 316 314 313 312 311 311 311 310 310 310 309 308 309 309 309 309 310 310 311 310 311 311 312 312 312 310 313 313 314 314 314 316 319 322 324 325 328
324 325 325 325 326 327 328 329 329 330 330 330 331 331 330 328 326 326 324 325 325 326 328 330 330 329 327 325 323 324 325 326 324 321 322 324 324 323 324 324 322 320 320 319 318 318 317 317 316 314 312 310 311 311 310 311 310 309 310 310 310 308 309 309 309 307 308 309 310 310 311 312 312 312 312 313 313 314 314 314 315 316 315 317 322
324 324 325 325 326 326 326 326 327 328 329 329 329 331 331 330 329 328 326 326 325 324 327 329 330 330 329 329 328 327 326 327 327 325 325 323 322 323 323 322 321 321 320 319 319 318 316 316 315 316 311 311 312 312 311 310 310 310 310 311 310 309 310 309 307 307 308 309 310 310 310 310 311 311 311 312 312 312 313 313 314 314 315 315 320
324 324 323 324 325 326 326 326 327 328 328 328 328 329 330 330 329 328 328 328 329 327 328 329 328 328 330 330 329 328 327 326 327 327 326 324 322 319 318 317 319 320 319 317 315 315 316 316 315 313 313 311 309 311 312 311 311 310 309 310 310 309 309 308 308 308 308 308 309 309 309 310 309 309 310 311 311 311 311 312 311 313 314 314 315
323 323 323 323 324 326 325 325 327 327 327 327 326 327 328 328 329 329 328 328 329 330 329 329 329 328 327 327 327 326 325 323 323 323 324 322 323 321 319 320 320 317 317 318 318 317 317 315 314 313 312 314 314 312 312 312 310 311 311 309 310 310 309 308 309 309 309 309 309 308 309 308 308 308 309 309 308 308 309 310 311 311 312 313 313
321 322 323 323 324 325 325 326 326 326 327 328 327 327 328 329 328 328 326 326 327 328 328 328 330 329 327 327 326 325 324 322 321 323 323 324 323 321 322 323 322 320 318 317 316 314 314 314 315 317 316 316 315 314 314 312 309 307 309 311 311 312 312 311 310 310 309 308 308 307 308 307 307 308 308 307 306 306 307 308 308 309 310 311 312
322 322 324 323 322 323 325 325 326 326 327 327 327 327 326 324 326 320 325 319 321 326 326 325 327 327 327 326 324 324 323 324 325 325 325 325 324 322 323 324 322 320 319 318 316 314 316 317 317 317 317 313 313 315 315 313 312 308 309 308 307 308 310 306 304 304 307 307 307 307 307 306 307 307 307 306 306 306 306 306 306 307 308 308 309
319 318 320 322 322 322 323 323 324 326 326 326 325 327 325 321 321 320 321 323 320 316 319 320 321 323 323 323 322 323 323 325 326 326 326 327 326 325 323 321 322 321 321 321 320 318 316 318 317 316 315 315 312 312 310 310 311 310 308 306 307 307 305 301 301 309 305 308 307 307 306 307 306 306 305 305 306 305 305 306 306 306 307 307 308
317 319 320 322 324 322 323 323 324 325 325 323 323 323 321 318 318 316 316 317 316 316 318 317 318 323 324 323 326 325 325 326 327 327 325 327 327 327 326 325 323 322 320 320 321 321 320 319 318 316 316 316 315 311 310 311 311 313 312 308 306 303 304 308 310 311 312 307 305 305 305 304 304 305 304 305 305 305 305 305 306 306 306 307 307
316 318 320 321 321 321 320 321 322 323 324 322 322 323 322 322 319 319 317 313 315 313 314 316 314 319 323 322 324 325 326 326 326 327 327 325 326 326 325 324 324 323 321 321 320 319 318 317 318 317 316 316 315 314 313 311 311 311 312 313 311 308 308 309 307 304 308 312 313 312 310 310 307 305 303 303 304 305 304 305 305 305 306 306 307
313 306 305 314 317 319 320 321 322 322 322 321 321 321 320 321 321 320 318 317 317 311 310 312 316 312 314 316 318 320 321 322 321 322 322 323 325 325 324 324 321 320 318 320 320 320 320 319 317 317 317 315 314 312 312 313 310 310 311 311 309 309 310 306 304 306 303 307 310 310 309 308 309 308 306 305 306 306 306 304 305 305 306 306 306
301 298 301 306 313 317 318 319 320 320 321 321 320 321 321 319 318 316 315 315 315 315 311 313 313 315 316 316 317 318 319 319 319 319 321 321 321 321 321 321 321 321 318 318 318 319 319 320 318 318 317 315 314 314 313 313 312 311 308 308 308 308 308 307 307 305 302 299 304 308 308 309 309 309 310 309 309 307 306 306 306 306 306 306 306
297 299 301 304 308 312 315 316 319 319 319 320 320 319 320 319 318 316 312 311 314 312 311 312 314 314 314 312 316 316 317 318 319 318 319 319 317 318 319 318 318 318 315 317 318 318 317 316 315 315 315 315 315 315 314 313 313 312 311 309 308 308 307 307 307 305 302 302 303 305 307 308 309 309 309 308 309 309 308 308 308 306 306 306 306
296 296 298 301 303 308 312 314 316 317 318 318 319 318 318 317 316 315 315 311 312 312 312 311 311 313 314 311 311 313 314 315 313 312 312 312 312 312 312 313 314 314 313 315 315 315 314 314 313 313 313 313 314 314 312 313 313 313 312 312 310 308 307 306 303 304 305 304 301 303 306 305 304 306 307 308 306 307 308 309 309 308 307 307 307
299 297 300 302 302 308 310 313 309 311 314 317 317 317 316 317 316 315 316 314 312 313 312 311 309 308 311 310 309 309 309 308 308 308 307 307 306 305 305 305 306 307 308 308 307 307 308 309 308 308 308 309 311 312 311 311 311 311 311 311 310 309 307 305 307 307 305 302 302 303 304 305 304 303 305 305 307 308 307 308 308 308 308 309 308
Wind_Speed
3 4 3 6 6 9 10 12 11 11 12 12 13 12 11 12 11 12 13 13 13 14 15 15 15 15 15 15 17 16 16 16 15 15 15 14 15 15 14 14 14 14 15 15 15 16 16 16 16 17 17 18 18 18 19 19 19 18 18 17 16 16 16 17 17 17 17 17 17 16 15 15 16 16 17 16 16 15 13 14 12 9 7 12 17
6 3 3 4 7 9 11 12 11 11 11 11 13 12 12 12 11 12 13 13 13 14 15 15 15 15 15 16 16 16 16 15 15 15 15 15 14 15 17 16 16 16 15 15 15 15 15 16 16 16 16 16 17 18 18 18 16 16 15 15 15 16 16 16 16 16 17 16 17 16 16 16 16 16 16 16 16 16 13 14 15 7 5 15 16
5 4 3 4 7 8 10 11 11 11 12 13 13 12 12 12 12 13 13 13 13 14 14 14 15 14 14 13 15 16 16 14 14 15 14 16 15 15 16 15 16 16 16 16 15 16 15 16 15 16 16 16 16 16 16 16 15 15 16 15 16 15 15 16 15 15 15 15 15 14 16 17 16 16 16 17 17 16 14 15 14 13 9 17 14
6 3 2 4 6 8 11 11 11 11 12 13 13 13 13 13 14 13 13 13 13 13 13 14 14 14 13 15 17 16 15 15 15 15 13 13 15 15 15 15 15 15 16 16 16 16 16 16 16 16 15 15 15 15 15 15 15 15 16 16 15 14 15 15 15 14 15 14 14 12 6 6 9 16 17 17 17 16 13 15 16 16 17 15 16
7 3 3 3 4 7 10 10 9 11 13 13 13 13 14 14 14 14 13 13 13 13 13 13 14 15 13 12 16 16 14 15 14 13 14 14 14 15 15 14 14 15 15 15 16 16 15 15 15 15 14 15 14 14 15 15 15 15 15 15 14 14 15 14 14 14 14 14 12 8 5 5 5 14 16 16 15 12 12 14 15 15 15 15 15
5 3 4 4 4 5 9 11 10 12 13 13 13 13 14 14 13 14 14 12 13 13 13 13 13 13 13 11 16 14 15 15 15 13 15 15 16 16 15 14 14 15 15 15 16 15 15 15 14 15 14 14 14 14 15 15 16 16 15 15 14 14 14 14 14 14 12 12 10 6 6 6 4 6 15 15 14 11 12 13 13 13 13 14 14
7 4 4 4 3 4 8 10 11 11 13 13 12 13 13 14 13 13 14 14 14 14 13 13 14 14 12 13 13 16 15 14 14 13 14 14 12 14 14 13 14 15 14 14 15 15 14 14 14 14 13 14 14 14 15 16 16 16 15 14 14 14 14 13 12 12 11 6 5 5 5 4 4 3 15 13 13 13 12 12 12 13 13 13 13
5 4 4 4 3 6 9 9 10 11 12 12 12 13 14 14 14 13 14 14 14 13 12 13 13 13 13 11 15 15 12 14 14 13 14 15 15 14 14 13 14 14 15 14 14 15 15 14 14 12 13 14 14 14 15 16 16 16 16 14 14 14 14 14 13 11 10 6 4 4 5 4 5 4 11 12 13 13 13 13 13 13 13 13 10
6 4 4 4 4 9 9 9 11 13 13 12 11 12 14 14 14 14 14 14 13 13 13 13 14 14 13 11 13 14 14 14 14 13 13 13 12 13 13 13 14 14 14 14 14 14 14 14 13 12 11 13 13 13 14 15 16 16 16 15 14 14 14 13 11 10 6 4 4 5 4 4 4 4 9 12 13 13 13 10 10 12 12 10 10
5 4 4 3 4 8 10 10 10 12 14 12 11 12 13 13 14 14 15 14 13 13 14 13 14 14 14 13 13 12 13 13 13 13 13 13 13 13 12 12 12 13 14 14 14 14 14 14 13 11 10 11 12 12 13 14 15 16 16 15 14 13 13 12 10 6 4 4 4 4 3 5 3 4 8 11 12 13 11 8 8 7 6 9 9
5 4 3 4 5 9 11 10 10 10 12 11 12 13 12 13 14 14 15 15 13 13 12 12 14 13 12 13 13 12 13 12 12 13 13 13 13 13 13 13 13 13 13 14 14 14 14 13 13 12 10 11 11 11 13 14 14 15 16 15 13 12 11 9 7 4 4 4 4 4 4 7 4 3 10 11 11 12 9 8 8 8 8 8 8
6 4 3 3 8 9 10 11 11 10 10 9 13 13 13 13 14 14 14 15 14 13 13 12 12 14 14 12 11 12 12 13 14 14 13 14 14 13 13 13 13 13 13 12 12 12 12 13 12 12 11 10 10 11 12 13 14 14 15 14 13 11 9 9 6 5 4 4 4 4 4 4 3 4 10 9 10 9 9 10 10 9 8 9 8
6 4 3 3 4 9 10 11 10 10 9 10 10 12 13 13 14 15 13 14 15 13 13 12 12 12 11 11 9 12 12 12 12 13 14 14 14 13 12 11 11 11 11 12 12 12 12 12 12 11 10 10 10 10 12 13 13 14 14 14 12 10 8 7 5 5 4 4 4 4 4 3 3 7 8 8 8 8 8 7 7 7 7 7 7
7 5 4 4 4 7 10 10 10 9 8 8 10 11 12 14 14 14 14 14 14 13 13 13 11 11 11 12 11 12 12 11 11 12 13 12 13 12 12 12 12 11 11 11 11 10 11 11 11 11 10 10 10 10 12 12 13 12 13 13 11 9 7 6 5 4 4 4 3 3 3 2 2 7 8 8 8 8 7 6 7 8 8 7 6
9 8 5 4 4 5 10 10 10 9 8 8 9 10 12 13 14 13 13 14 13 13 13 12 12 11 10 10 10 12 11 10 11 10 11 12 12 13 13 12 11 11 10 10 10 11 11 11 10 10 9 9 9 10 11 12 11 11 11 11 11 8 7 4 3 3 4 3 2 2 2 2 2 6 8 7 6 6 5 4 5 6 5 5 5
8 8 6 4 4 5 6 9 9 9 9 9 9 10 11 11 9 10 13 13 13 13 12 13 12 11 11 11 10 12 12 12 11 12 10 11 12 12 12 11 11 10 9 9 10 11 11 10 10 9 9 8 9 9 10 10 10 10 10 8 8 8 7 4 4 3 3 3 1 1 1 2 6 9 6 6 5 6 5 6 7 7 5 5 6
7 6 6 5 4 5 6 5 7 10 10 10 10 11 11 10 8 8 9 11 11 11 12 12 12 11 10 10 10 9 11 12 11 12 13 11 11 10 11 11 11 11 10 9 10 10 10 10 9 8 7 7 8 8 8 9 8 8 8 7 8 8 8 5 3 2 2 2 1 1 0 2 2 4 3 4 5 5 4 4 4 4 4 4 4
6 6 6 6 5 5 6 6 6 6 5 8 10 11 10 9 9 9 10 10 9 9 10 11 10 9 9 8 9 10 11 11 10 11 12 12 12 12 12 11 10 9 9 9 9 9 8 8 8 7 6 6 6 6 7 7 7 6 6 7 7 7 7 6 3 1 0 1 1 0 0 3 6 1 3 4 6 4 1 3 4 3 2 2 3
6 5 5 6 6 5 6 5 5 5 5 5 5 8 10 9 9 9 11 10 9 10 10 10 9 8 8 9 9 10 10 10 9 8 8 9 9 8 10 9 9 9 9 9 8 8 7 7 6 5 5 4 4 4 4 4 4 4 4 5 6 6 5 4 2 1 0 0 1 0 0 4 4 1 4 4 4 2 2 5 6 2 2 3 2
5 5 5 5 6 6 5 5 5 5 4 5 6 5 8 9 8 9 10 10 10 10 10 9 9 9 9 9 9 8 8 7 9 7 8 8 8 6 6 7 9 8 8 8 8 7 6 6 5 4 3 3 3 3 3 3 3 3 4 4 5 5 4 2 1 1 1 1 1 1 3 4 2 4 1 2 3 2 1 1 3 0 0 1 3
4 5 5 6 6 7 7 6 5 5 5 5 5 6 7 9 7 8 9 9 9 9 9 9 8 8 7 8 7 5 5 4 5 4 6 4 7 7 7 7 7 7 6 7 6 6 5 4 4 3 2 3 3 4 5 6 5 4 4 5 5 3 3 3 2 1 1 2 1 3 4 4 3 2 3 4 5 3 1 1 2 3 2 2 3
7 6 5 6 6 6 7 7 6 6 5 5 4 5 6 6 5 4 4 6 7 7 6 4 5 4 6 5 3 3 4 4 4 5 3 4 4 6 6 6 6 5 6 6 5 4 4 3 2 1 2 2 2 2 3 4 6 6 6 6 4 3 3 3 2 2 1 3 2 4 4 4 4 5 7 5 5 4 2 3 2 3 4 3 4
7 6 5 6 6 6 5 6 6 6 6 4 4 4 6 5 4 4 4 5 5 4 4 4 3 4 3 3 3 2 2 3 3 4 3 4 4 6 6 5 5 5 5 5 4 3 1 2 0 0 1 2 1 2 3 3 4 5 3 3 3 4 3 4 2 2 2 3 3 5 5 6 6 6 6 3 4 6 5 5 5 5 5 4 4
8 7 7 6 5 6 6 6 7 6 6 5 4 4 4 4 4 4 4 4 4 4 3 3 3 3 4 4 3 3 2 2 4 5 5 3 3 5 5 5 5 6 6 4 4 2 2 1 1 1 1 1 2 2 3 4 5 3 3 3 3 4 3 3 2 2 3 3 3 7 7 7 8 8 7 9 10 9 6 7 7 7 6 6 6
8 6 5 7 7 7 6 6 6 7 6 5 5 5 4 4 4 4 4 5 4 4 4 3 3 3 3 4 3 3 3 2 3 3 3 3 3 2 3 3 3 3 4 2 1 1 1 1 2 2 1 1 1 3 3 4 3 2 2 3 3 3 3 3 2 1 3 3 4 7 8 8 9 9 9 9 9 6 8 8 8 8 8 9 9
5 7 8 8 8 8 8 7 7 7 7 7 7 6 6 5 5 4 4 4 4 4 4 4 3 3 3 3 3 4 4 3 3 3 3 3 3 3 3 3 3 3 2 3 2 1 2 2 2 3 3 1 3 3 3 3 2 1 2 3 3 3 3 3 2 1 2 3 5 8 8 8 10 11 11 11 11 9 9 9 9 10 11 11 12
7 8 8 7 8 7 8 7 8 7 7 6 5 6 6 5 5 5 5 5 4 4 5 4 5 3 3 4 5 5 4 4 4 3 4 3 5 3 4 3 4 4 3 3 4 3 3 3 3 4 3 3 3 2 2 3 3 2 3 3 3 4 4 4 4 3 2 3 4 8 8 9 10 12 13 13 13 13 13 13 13 13 13 13 16
7 8 8 8 8 9 8 8 8 8 7 6 6 6 6 5 6 6 5 6 5 5 5 5 4 5 4 5 6 6 6 5 5 5 5 3 4 4 3 3 3 4 3 4 4 3 4 4 3 3 3 3 3 3 3 3 2 1 3 4 4 5 5 4 4 4 4 3 4 6 8 9 10 11 14 14 15 15 15 15 15 13 15 16 16
8 7 8 8 9 8 8 9 9 9 8 7 7 7 6 6 5 5 6 5 5 6 6 5 5 5 4 5 5 6 5 6 5 6 4 5 4 4 4 5 4 5 3 5 4 4 4 5 5 5 4 4 3 4 3 4 3 3 3 4 4 4 4 5 5 5 4 4 4 6 8 9 9 11 13 14 16 17 17 17 17 17 16 17 18
9 8 8 8 8 8 8 9 10 10 8 7 7 6 6 6 6 6 6 6 6 6 4 5 5 5 5 4 6 6 6 6 6 5 5 5 5 4 5 5 5 5 4 5 5 4 5 4 4 3 3 4 3 5 3 4 4 4 4 4 5 5 5 5 5 5 5 5 5 6 8 9 9 10 12 14 16 17 18 18 18 18 19 19 18
8 8 7 7 7 8 9 9 9 8 7 7 6 7 6 7 7 6 6 6 6 6 5 6 5 5 6 5 5 5 6 5 5 5 5 5 5 5 5 5 5 5 5 6 3 5 4 5 4 4 4 4 6 3 2 5 5 5 4 4 6 4 5 5 5 5 5 6 6 5 6 9 10 9 11 13 15 18 18 18 19 20 20 20 21
9 10 8 7 7 9 10 9 9 8 8 7 7 6 7 7 7 6 6 7 5 6 6 6 6 6 4 4 4 4 4 5 5 4 5 4 5 5 5 4 6 5 5 5 5 4 4 4 3 2 3 2 3 3 1 2 5 6 4 5 5 5 6 6 5 6 6 6 6 6 6 6 9 11 11 12 15 16 18 19 20 20 21 21 22
8 10 10 8 9 9 9 10 9 8 9 8 7 6 6 6 6 7 6 7 7 6 6 6 6 5 4 4 5 4 4 5 5 5 5 4 3 4 3 4 5 4 4 4 4 3 1 2 2 0 1 1 2 4 2 2 4 6 5 5 4 6 6 5 6 6 7 6 7 6 6 6 6 9 11 12 13 16 17 19 20 20 21 21 22
9 8 9 11 9 7 7 8 9 10 10 7 7 6 6 6 6 6 6 6 6 6 6 6 6 6 5 4 5 4 4 4 3 2 3 3 3 3 3 3 3 2 2 2 3 3 3 2 3 2 3 2 4 5 4 6 6 5 6 6 5 6 6 6 6 6 6 6 7 6 7 6 7 7 7 11 13 14 15 17 19 20 22 22 23
8 8 12 12 10 9 8 7 9 9 9 8 8 7 6 6 6 6 6 6 6 6 5 4 5 5 6 5 4 4 4 3 2 2 1 1 1 1 2 5 3 2 2 3 4 2 2 4 3 3 4 4 4 4 4 5 6 7 7 5 6 6 6 6 6 6 7 7 7 7 7 7 7 7 7 7 9 14 14 15 18 18 21 22 23
12 11 10 9 11 10 10 9 8 9 9 9 8 7 7 6 6 6 6 5 6 5 5 5 5 5 6 5 4 4 4 3 3 3 1 1 0 1 3 3 3 1 2 2 2 4 4 4 2 2 4 5 4 5 3 6 6 7 6 6 6 6 6 6 7 7 7 6 7 8 7 7 7 7 7 7 7 9 14 15 14 17 18 21 23
10 10 11 9 10 10 11 11 11 11 10 9 8 7 7 6 6 6 5 5 6 5 5 4 4 4 5 5 4 4 3 3 3 3 2 1 0 1 3 2 2 2 2 2 3 4 4 4 4 4 3 5 4 5 7 6 6 6 6 5 7 6 6 7 7 7 6 6 8 8 7 8 8 8 7 7 8 8 10 14 15 16 17 17 19
8 10 10 11 11 9 10 10 10 10 9 9 9 8 7 6 6 6 5 5 5 6 5 5 5 5 4 3 4 5 5 5 4 3 1 2 2 2 3 3 3 2 3 2 4 1 2 2 4 3 3 3 5 6 7 7 5 5 6 7 8 6 7 7 7 6 6 8 8 8 9 7 7 7 7 7 8 7 7 10 14 16 17 17 17
7 9 9 8 8 8 8 8 9 9 9 8 7 7 7 6 5 6 5 5 4 4 5 5 5 5 4 4 4 4 5 5 5 5 4 5 4 4 4 4 2 2 1 2 2 1 2 2 5 6 3 5 5 5 6 5 6 6 6 9 8 8 7 7 7 7 8 8 9 8 5 8 7 7 8 8 7 7 8 8 8 8 10 15 16
8 8 9 9 9 8 8 8 9 9 7 7 7 7 6 6 6 4 5 6 5 5 4 5 4 4 6 7 7 6 4 5 5 7 7 7 6 5 3 3 3 2 2 2 4 4 5 5 6 5 6 4 3 6 5 5 6 6 9 9 8 8 8 8 7 8 8 8 8 7 8 8 6 7 8 8 6 6 7 8 7 8 8 12 16
7 9 9 10 10 11 9 11 9 8 8 8 7 8 8 6 6 8 8 6 6 5 5 5 5 4 3 3 4 5 5 5 6 3 4 4 4 3 4 4 3 2 3 5 6 5 5 4 3 1 3 5 5 3 4 3 4 7 6 7 8 6 8 8 9 8 8 8 6 6 7 6 7 7 8 6 6 6 7 8 8 8 9 8 10
8 9 11 12 11 10 11 11 8 8 10 10 9 8 7 8 8 8 5 4 5 5 5 4 5 5 4 3 3 3 4 4 4 3 3 3 4 4 4 4 4 5 5 4 3 4 4 4 3 4 4 5 5 2 3 2 2 4 7 7 7 7 8 8 8 8 7 6 6 6 7 6 8 8 7 6 6 6 7 7 7 8 8 8 8
11 11 11 9 9 10 10 9 9 9 9 9 9 9 6 5 5 3 5 2 1 4 5 4 4 5 5 5 4 5 4 4 4 4 4 4 4 4 5 6 5 4 4 4 5 5 5 5 5 4 5 3 4 4 5 5 5 4 4 5 5 7 4 3 3 5 6 7 6 6 6 6 8 7 6 6 7 7 6 7 8 8 8 8 8
8 7 7 9 8 9 9 9 10 9 9 9 9 7 6 5 4 4 4 5 4 3 3 2 2 1 3 3 3 4 4 4 4 5 5 5 5 5 6 4 5 4 7 7 5 6 4 4 5 6 4 4 3 4 2 5 5 3 5 1 5 4 10 2 5 6 4 6 4 6 5 7 7 7 6 7 8 7 7 7 9 9 9 9 9
9 10 10 10 9 11 11 11 9 10 8 8 8 6 5 4 3 2 2 1 2 2 2 2 2 3 2 2 5 4 4 6 5 5 6 7 7 8 4 3 3 4 2 3 5 5 4 5 5 4 5 5 5 2 2 2 4 3 3 3 4 1 3 9 9 9 3 3 4 4 7 6 7 7 6 7 7 7 7 7 9 8 9 9 9
9 9 9 9 7 7 7 7 6 7 8 8 9 8 8 8 6 5 5 3 4 3 4 5 4 4 5 2 1 1 2 2 2 4 4 3 3 3 2 2 1 2 2 2 3 2 3 3 4 3 4 4 3 5 4 2 3 3 4 4 3 7 10 6 6 6 1 6 10 8 7 7 6 7 6 7 8 8 6 8 9 9 8 8 9
8 4 4 6 6 7 7 8 8 7 7 7 8 8 7 7 9 8 6 6 6 3 3 2 3 2 3 4 3 3 2 2 1 2 2 2 2 3 4 4 2 1 2 3 3 2 3 2 2 1 3 2 2 3 4 4 2 3 5 4 4 5 6 6 5 8 14 1 5 6 6 7 9 8 6 6 8 8 7 7 9 8 8 8 9
4 2 4 5 7 7 8 8 7 7 7 7 8 9 9 7 7 6 6 6 6 5 3 3 4 5 6 5 5 4 4 4 5 4 4 4 4 4 4 4 4 4 3 4 3 2 2 5 6 4 4 3 2 3 4 3 3 3 0 3 3 4 4 4 6 7 10 14 9 5 6 8 7 7 8 8 7 8 8 7 8 8 7 8 8
3 4 5 5 5 5 6 6 8 8 7 8 9 8 8 9 8 6 5 4 5 4 4 4 6 5 7 3 5 4 4 3 3 4 4 3 4 3 3 4 2 2 2 2 3 5 5 3 5 6 6 6 5 3 3 5 4 3 5 3 3 3 4 6 6 2 5 10 16 10 11 4 5 6 7 5 7 8 8 9 8 8 8 8 8
2 2 1 1 4 5 6 7 8 7 7 7 8 8 7 8 7 6 7 5 5 4 5 5 5 4 6 5 4 4 4 5 5 5 5 5 5 5 5 5 4 3 4 4 3 3 3 4 3 3 3 3 3 5 3 2 3 4 4 5 6 5 4 3 1 5 5 7 11 14 12 14 17 7 6 9 5 6 7 8 10 9 8 8 8
1 1 2 1 3 5 6 7 6 5 6 8 8 8 6 7 7 8 9 9 7 8 7 5 5 5 6 4 5 4 4 5 5 6 6 5 6 5 5 4 5 5 6 5 4 3 3 4 3 4 4 4 4 4 5 5 4 4 5 4 5 6 6 7 9 7 7 8 11 14 13 13 13 18 8 3 7 7 6 8 8 8 8 9 8
Wind_Direction
188 151 166 140 133 123 117 109 105 104 101 99 98 93 93 95 98 96 95 95 96 96 94 94 95 92 87 86 83 81 81 80 78 79 81 80 76 77 76 77 76 74 73 72 73 74 75 76 77 80 79 77 76 77 76 75 75 75 73 72 71 74 76 75 72 70 70 68 71 75 82 86 87 85 83 81 75 69 68 69 70 71 70 69 67
162 165 144 140 132 122 117 109 106 106 109 108 99 95 95 98 102 101 100 99 100 98 98 97 94 90 89 86 89 88 82 82 85 84 82 82 83 79 72 72 75 76 76 75 74 74 76 77 79 84 84 77 74 75 74 73 72 70 72 73 77 78 77 75 73 72 71 71 73 80 83 85 85 85 87 83 77 73 70 72 73 68 65 70 67
127 134 146 132 125 121 114 112 107 108 109 105 104 102 101 102 102 101 99 102 102 101 97 96 93 92 93 95 90 83 84 83 84 88 91 85 79 78 81 79 77 77 77 78 77 77 78 79 80 85 79 74 72 71 71 70 66 65 75 82 86 81 76 74 74 74 71 67 63 58 69 81 84 84 83 83 81 75 73 75 75 70 72 74 71
127 140 123 126 121 116 113 108 107 107 107 110 107 104 103 106 105 103 104 104 106 107 107 99 93 91 87 87 90 90 87 84 84 84 81 90 88 82 81 80 80 80 81 82 80 80 81 81 84 87 76 71 70 68 67 65 61 61 72 85 87 84 81 80 75 74 74 70 66 63 49 39 69 78 81 78 78 77 76 75 74 73 71 70 70
130 131 115 101 103 108 112 111 108 119 109 104 100 101 103 106 108 108 106 107 107 102 98 99 98 94 92 95 92 90 89 92 90 93 92 83 86 85 81 79 81 83 81 80 82 80 82 83 87 88 73 68 65 64 60 57 55 58 79 86 88 87 86 80 77 75 73 72 66 61 50 43 42 80 80 82 82 81 75 72 68 66 66 67 66
130 126 115 112 111 120 121 114 106 111 105 104 105 104 106 108 110 111 109 108 105 102 103 102 100 99 97 93 94 99 101 95 87 87 93 92 91 89 87 86 86 83 83 85 87 88 85 87 88 92 76 65 63 58 56 54 51 51 64 86 91 89 86 83 79 73 65 61 58 55 57 51 41 61 77 77 78 76 74 71 69 69 66 63 61
128 126 118 120 122 127 119 110 104 105 107 110 108 105 104 108 108 110 114 110 103 103 99 94 95 98 99 96 99 96 91 91 90 90 93 95 95 88 88 88 86 85 85 85 84 85 86 86 89 93 77 66 59 56 55 52 50 49 56 83 95 94 88 83 74 70 66 59 53 49 48 52 43 33 66 66 67 66 64 66 65 63 62 58 58
118 124 129 128 130 123 111 107 103 111 117 108 101 105 106 110 112 114 111 104 100 99 102 105 105 103 101 99 100 100 98 98 98 98 91 82 79 84 85 83 86 87 90 89 87 88 88 86 90 92 80 67 60 57 55 52 48 47 54 75 96 95 88 84 78 71 67 63 56 53 50 43 49 48 70 70 67 62 59 59 60 60 60 63 57
125 126 126 126 125 123 115 108 104 108 113 109 107 108 109 111 115 112 104 100 101 104 105 103 101 101 101 98 95 96 105 104 102 101 94 88 85 82 81 84 89 90 89 87 87 86 88 90 90 94 86 64 58 56 55 53 48 47 53 69 87 94 94 87 80 72 66 64 60 59 54 53 50 49 68 66 64 63 62 56 46 54 58 59 64
127 115 119 121 127 122 113 106 103 116 113 110 108 109 113 115 115 111 104 102 104 105 104 106 107 103 104 109 109 110 104 104 99 94 93 94 95 91 91 92 89 92 92 90 89 87 86 87 87 86 87 66 58 56 54 52 49 49 52 59 78 94 97 94 88 82 78 64 49 40 52 58 42 58 72 69 64 62 57 65 69 65 64 55 56
116 116 116 118 128 120 114 108 101 100 110 120 117 108 106 108 111 110 108 107 108 108 109 110 110 112 111 103 102 104 106 105 105 103 98 95 88 86 86 86 83 78 80 85 87 88 89 92 91 89 85 68 59 54 54 51 49 50 51 55 62 78 88 87 78 68 71 71 63 45 45 55 58 52 74 72 67 66 53 65 69 68 67 68 63
120 119 119 127 124 117 111 106 104 102 101 100 114 112 110 109 111 112 110 111 108 107 107 106 108 109 107 101 101 103 100 92 89 95 99 100 95 90 86 82 80 80 83 85 86 86 84 81 84 86 81 68 58 55 53 51 48 49 49 51 58 65 73 76 77 73 68 66 67 60 54 53 60 70 66 66 73 72 65 58 56 53 49 53 58
126 126 129 120 123 123 117 113 107 107 106 106 104 118 119 114 110 109 106 105 105 105 106 107 109 103 104 112 111 106 105 92 88 104 104 100 97 93 89 85 82 86 87 84 85 88 90 88 85 83 77 64 55 52 53 51 48 47 47 47 52 61 64 64 73 73 66 65 68 66 60 57 53 68 70 65 71 59 52 48 53 58 57 50 52
136 135 136 132 131 125 119 115 110 102 99 98 93 92 114 108 106 106 108 106 107 108 107 108 105 107 111 110 116 108 103 101 95 98 102 102 100 98 97 91 89 86 84 86 89 90 89 87 80 75 68 56 49 46 50 50 48 43 41 42 45 54 66 73 78 86 80 72 59 59 57 51 70 77 67 69 70 65 66 73 53 50 51 55 48
141 143 140 133 131 124 116 112 108 104 100 98 98 99 99 110 113 110 114 113 113 112 108 107 107 100 97 108 114 99 100 100 100 94 105 103 103 102 97 95 91 89 90 88 89 87 83 80 78 71 62 55 48 42 46 49 46 41 38 36 41 47 69 74 73 83 91 80 64 53 41 33 95 66 71 71 64 56 43 21 73 72 55 61 53
141 141 137 135 132 123 114 112 109 104 97 91 93 90 88 84 93 115 112 115 116 114 114 112 109 105 99 79 87 105 96 89 80 69 90 113 106 106 102 100 98 96 93 91 85 81 81 80 78 75 69 59 49 43 43 48 45 37 31 29 35 43 53 88 91 89 98 97 62 38 5 318 44 84 81 74 65 56 54 44 36 40 38 34 44
141 139 137 136 134 124 119 113 108 103 99 95 93 93 92 90 87 97 113 111 113 115 118 113 105 106 100 87 81 84 92 85 81 81 74 82 95 99 100 93 88 87 90 92 85 85 85 85 84 77 68 60 51 45 44 45 44 37 29 20 26 41 47 53 58 76 101 105 109 66 320 343 322 71 60 91 81 82 76 74 67 65 32 38 42
145 144 143 142 136 128 120 117 112 106 105 98 97 99 97 96 97 104 110 110 114 113 112 105 103 97 89 86 85 86 90 89 82 80 83 80 85 90 89 90 89 90 90 86 87 85 84 83 85 80 73 60 47 47 44 41 42 37 28 23 20 20 42 53 61 21 78 123 143 256 323 320 325 134 45 81 114 121 119 322 123 69 41 48 37
145 146 147 144 140 131 126 121 117 119 114 109 108 105 106 106 107 112 118 121 116 114 110 111 110 104 101 97 92 89 89 88 84 79 77 86 85 91 98 98 96 95 96 94 93 90 88 88 80 81 76 69 62 51 44 39 31 33 18 17 18 7 24 62 30 21 14 293 258 331 287 306 310 283 12 117 117 99 26 33 76 43 2 7 8
153 155 157 155 144 137 136 132 132 132 127 125 120 118 114 114 113 116 123 127 127 125 126 122 119 118 115 107 104 98 92 92 90 80 82 84 89 91 96 100 103 101 98 98 96 97 93 89 87 77 65 37 24 23 3 3 15 13 8 16 9 4 9 48 84 322 231 222 257 263 289 289 314 307 96 217 184 139 41 97 105 120 67 345 332
163 172 167 161 153 148 147 144 147 142 138 135 130 125 124 116 115 123 128 131 134 136 133 129 128 129 122 116 107 106 111 110 99 102 88 89 94 92 94 100 103 107 103 102 98 100 102 92 81 69 44 22 6 352 348 347 338 334 343 0 355 354 337 333 85 283 266 217 237 251 255 256 257 260 295 266 229 167 131 144 243 293 164 236 232
171 174 185 166 159 163 157 153 152 151 148 142 137 134 136 133 131 132 129 131 135 137 138 144 142 135 124 115 110 119 124 124 126 120 114 108 97 110 110 112 113 110 118 117 116 109 109 110 89 78 357 30 5 355 338 332 328 330 348 340 335 320 315 322 351 309 211 205 225 248 251 266 265 262 307 352 112 185 194 217 223 243 229 232 271
171 174 182 180 174 164 161 158 160 158 152 144 143 147 141 136 145 142 138 143 148 147 156 151 147 138 140 132 131 125 132 139 142 141 138 136 138 131 123 118 118 120 119 123 130 146 165 134 159 21 60 7 345 335 325 304 301 324 346 331 316 307 304 308 313 290 223 207 218 237 246 246 244 267 286 244 265 265 241 229 229 241 238 245 259
177 179 175 179 175 171 174 168 165 162 156 155 151 156 159 158 156 154 147 153 154 164 166 165 161 157 158 159 152 151 143 174 150 141 132 136 144 135 136 131 132 134 138 136 153 183 201 302 355 10 350 342 330 292 291 288 285 291 291 279 282 289 306 306 302 248 255 244 236 239 238 240 243 261 278 293 293 298 191 220 233 246 236 231 252
176 169 168 180 184 179 174 176 170 167 163 161 162 171 168 161 165 162 161 162 170 175 180 182 176 179 177 171 167 151 152 171 157 149 145 147 142 147 145 148 147 156 145 158 188 232 326 298 319 335 227 230 283 280 294 292 293 298 297 299 279 275 285 290 292 280 248 252 242 246 242 242 249 260 278 276 280 290 196 220 247 252 266 256 257
160 172 181 181 186 185 178 175 173 173 174 168 176 171 161 169 172 176 167 176 175 185 190 194 196 195 184 173 149 147 157 163 184 172 176 167 173 184 194 183 178 189 181 189 216 220 280 269 277 290 275 198 226 251 245 238 268 294 313 324 312 311 287 262 255 284 258 243 256 254 244 247 250 260 274 277 277 273 222 228 249 260 264 266 244
175 186 180 184 185 186 180 167 178 175 180 178 169 165 179 178 175 173 171 185 184 188 204 207 207 195 180 158 150 161 163 174 192 186 191 190 194 200 207 197 201 209 217 195 214 230 241 263 261 263 287 311 290 267 254 247 231 264 282 294 298 290 297 300 297 290 267 256 254 259 256 252 250 257 264 273 282 282 279 266 264 260 258 263 252
173 181 182 182 185 189 180 168 177 177 181 179 168 178 181 175 182 174 187 181 175 196 204 209 207 193 183 174 160 165 169 182 193 187 204 191 208 205 212 215 218 226 214 215 214 231 245 257 260 265 280 277 275 277 266 263 294 291 304 293 294 293 291 294 295 294 294 283 275 268 255 255 256 254 260 268 273 277 278 277 274 267 260 262 265
185 185 181 182 190 187 179 173 173 179 180 175 175 183 179 179 174 179 190 184 187 196 200 201 207 196 190 174 159 169 186 185 183 201 186 203 214 200 204 219 220 232 198 227 217 221 228 233 238 244 261 270 262 271 293 298 293 291 270 283 283 288 291 287 288 288 286 276 271 271 267 261 255 254 256 258 265 273 277 281 284 282 271 264 266
194 189 176 188 186 182 182 178 173 178 176 171 183 177 182 179 182 188 192 179 201 197 189 192 209 186 194 195 176 175 184 188 196 193 184 210 217 209 204 223 214 227 204 220 219 210 217 227 237 253 258 259 265 263 276 284 291 281 279 273 281 274 277 278 279 277 276 280 267 265 270 265 261 256 255 256 262 267 271 275 278 278 280 281 279
184 193 191 185 181 176 185 181 176 176 168 177 179 183 178 183 187 188 179 191 201 188 183 197 206 202 199 193 196 183 180 194 202 193 200 206 210 207 215 215 226 224 211 229 210 209 213 218 223 229 233 243 252 271 291 287 288 290 277 274 268 279 276 272 273 273 275 271 273 269 266 265 262 259 258 260 262 265 268 271 274 276 277 277 276
185 195 195 181 171 183 182 182 178 176 172 179 177 184 183 181 186 175 183 193 189 181 186 189 199 212 207 199 195 196 173 190 196 210 207 213 208 207 213 202 223 221 211 224 219 219 213 228 243 254 265 274 291 312 331 285 286 282 302 281 279 280 270 271 272 270 269 269 268 268 264 264 263 259 259 260 261 262 265 268 269 272 275 276 278
199 190 190 178 181 184 178 183 177 174 178 178 180 184 183 178 173 178 182 183 187 172 173 186 193 204 206 206 204 192 191 174 188 195 208 222 228 218 214 214 223 215 209 221 223 225 239 277 283 6 325 343 324 293 314 282 280 285 293 275 279 277 269 274 270 270 266 265 265 263 265 262 261 264 261 258 259 261 264 265 265 267 268 268 271
191 192 180 187 185 181 180 175 180 178 182 176 175 176 186 183 178 178 184 185 196 187 181 181 180 190 200 205 208 206 192 191 165 162 175 202 230 235 239 254 256 244 229 218 228 220 230 246 257 323 295 313 279 278 309 303 289 286 280 276 285 273 281 280 268 266 270 268 265 266 261 263 261 258 257 258 256 258 259 260 263 266 266 268 268
186 186 188 189 181 180 176 178 180 182 180 179 177 180 184 180 182 181 187 187 196 197 197 180 166 179 182 204 203 206 208 185 166 137 110 102 157 228 240 242 256 272 257 233 219 230 223 236 241 256 279 286 275 286 291 283 284 286 282 293 282 279 279 268 273 273 269 267 269 263 261 259 261 259 257 257 259 257 254 256 261 262 265 267 269
191 188 190 181 183 180 179 176 179 181 186 182 180 177 182 186 184 187 183 187 188 195 194 195 182 160 173 182 202 199 197 162 136 130 114 120 136 260 261 286 281 261 236 251 202 222 225 239 255 243 278 274 287 287 274 269 268 273 277 283 276 274 277 278 273 270 265 271 265 263 260 257 257 256 256 258 260 258 254 258 258 260 262 265 267
190 185 186 183 183 182 179 176 180 184 184 183 179 178 177 186 192 191 191 178 185 196 201 194 187 172 159 171 183 184 177 159 143 130 120 123 130 281 275 258 241 213 233 225 223 228 209 219 241 225 221 268 288 275 278 265 270 267 276 278 273 273 273 270 270 267 282 268 264 261 260 257 256 258 258 258 260 258 263 260 261 262 263 264 265
193 188 187 183 186 182 183 182 182 181 179 180 181 177 181 180 189 194 192 189 190 189 199 193 197 194 176 189 184 183 178 174 163 151 153 200 214 226 253 261 245 221 224 208 237 277 302 264 263 258 212 216 253 260 267 278 281 286 284 274 272 269 264 267 265 271 263 265 261 257 254 261 264 262 261 259 258 261 266 266 264 265 265 265 265
187 191 187 190 184 186 185 185 178 179 177 174 178 169 171 180 181 189 195 202 201 203 192 199 197 183 188 208 214 209 203 205 198 194 215 239 250 245 236 249 257 253 212 207 234 243 265 253 233 257 234 220 237 257 264 278 286 285 281 274 275 272 271 265 266 265 257 252 259 262 272 264 260 261 262 263 263 268 268 268 271 271 268 265 263
182 183 187 186 189 188 189 189 188 178 170 167 164 168 170 180 188 194 204 206 198 195 201 199 211 216 197 195 195 195 201 207 210 210 206 209 218 229 226 237 226 199 235 255 247 225 229 237 242 238 267 286 248 255 263 273 275 273 272 275 266 267 269 264 264 258 261 264 260 261 260 264 265 268 267 262 268 264 265 268 269 268 271 273 271
187 179 183 189 189 188 183 195 194 180 174 172 177 175 179 185 192 195 203 195 195 191 197 200 195 201 220 216 212 212 208 211 217 211 216 218 227 235 241 272 269 239 224 235 239 240 236 240 281 241 250 275 282 247 253 223 281 291 272 267 283 264 257 264 261 261 258 259 260 267 271 281 274 273 268 273 272 268 264 269 268 269 271 272 275
205 185 188 193 190 186 189 192 184 188 190 187 185 189 190 196 193 197 175 169 180 191 205 208 198 197 203 208 213 207 201 200 210 209 217 210 229 245 248 251 259 245 232 244 260 256 266 255 235 274 209 243 268 239 238 106 278 250 302 310 289 270 255 252 254 256 264 272 269 265 271 271 275 271 276 280 275 267 265 265 268 269 269 271 273
193 194 196 183 184 187 196 186 188 189 195 191 184 195 194 190 179 176 166 170 223 189 190 191 188 198 206 207 208 205 202 210 209 211 214 219 223 226 227 225 240 237 254 258 248 255 243 249 234 234 279 230 239 257 242 176 254 254 261 296 294 327 320 281 293 286 268 264 264 267 267 269 269 268 273 282 272 268 266 264 267 269 270 270 269
188 194 190 188 188 193 193 188 191 191 190 193 193 191 181 179 183 161 174 163 187 190 190 197 207 220 243 222 212 208 207 213 213 211 212 219 218 226 235 212 219 212 223 236 249 254 247 248 236 233 222 283 238 271 218 203 217 284 315 219 300 339 316 291 314 292 215 255 270 268 267 265 267 274 277 266 263 263 263 260 262 260 262 261 260
194 195 192 192 192 194 193 189 187 191 191 184 185 169 152 154 133 77 80 82 42 86 151 226 207 211 242 200 218 201 206 215 212 206 210 218 215 225 235 240 211 242 245 244 246 254 250 247 251 242 211 233 272 270 311 201 236 223 243 321 315 299 247 301 326 300 309 11 285 268 268 260 259 260 259 260 264 261 262 266 261 259 258 260 261
199 203 196 196 191 192 187 188 187 187 190 184 177 166 174 169 165 172 178 180 199 157 188 207 214 206 212 201 191 218 228 241 225 217 244 278 292 298 267 242 257 313 250 251 285 309 275 290 288 259 265 255 267 306 302 275 225 232 226 223 217 270 302 318 344 310 315 283 283 276 286 283 269 263 245 261 269 266 255 261 259 263 264 262 262
211 192 201 202 197 188 188 187 188 191 187 179 174 168 173 179 182 188 184 183 184 235 225 218 173 126 95 85 93 75 87 121 88 107 67 55 58 52 48 43 40 46 57 64 24 352 348 334 326 319 276 294 261 261 276 297 345 257 228 252 283 282 293 313 302 310 307 249 216 282 275 273 281 279 268 254 264 273 267 256 266 266 267 263 263
196 196 202 201 199 196 188 190 189 187 186 175 177 178 174 177 178 182 176 173 175 193 174 124 109 112 90 86 88 77 76 85 84 77 85 72 61 50 52 50 45 38 42 54 49 13 27 34 25 5 345 336 308 290 302 312 287 305 173 257 282 295 286 281 257 270 292 305 301 251 238 262 268 261 272 280 277 272 273 266 266 269 263 263 261
229 195 197 194 196 193 188 185 189 186 187 176 176 185 176 173 173 164 165 178 161 147 127 123 125 129 108 95 87 85 84 79 84 77 63 67 58 57 45 37 48 54 52 69 59 51 52 43 28 25 22 21 23 340 349 341 335 320 338 341 311 276 283 260 286 288 288 305 299 308 313 285 231 256 273 251 266 274 277 277 270 269 272 273 269
226 221 214 187 187 180 181 181 192 189 181 176 175 177 172 163 162 165 157 145 130 126 124 121 120 124 103 84 77 72 61 64 50 48 48 44 59 51 53 46 37 37 45 48 53 56 57 56 52 49 34 35 17 23 19 340 358 354 343 332 331 308 297 327 344 307 276 250 284 313 320 324 318 298 296 292 252 251 264 273 283 281 276 271 275
255 175 172 167 165 175 171 174 185 177 174 172 166 166 160 163 161 165 159 152 152 140 127 115 119 96 97 88 86 75 54 56 53 48 46 43 53 51 53 52 46 41 39 33 26 43 52 47 40 41 34 35 23 20 19 24 15 5 2 345 335 343 336 329 326 333 327 320 317 310 313 311 307 309 308 269 297 287 263 266 270 273 275 279 277